When you browse on this site, cookies collect data to enhance your experience and personalize the content and advertising you see.
Visit our Privacy Policy to learn more. By continuing to use the site, you agree to this use of cookies and data.
  • In Latvia
  • List of Countries
  • For 7 days
  • Water Temperature
  • Weather Map
  • Weather Widgets
  • user-avatar
    Login

    Hourly Weather Blazejewice

    Today, 3 June, Wednesday

    Time Temperature Precipitation Wind Pressure Humidity
    00:00 +8°C° 0 mm 2 mps 738 mmHg 90%
    01:00 +9°C° 0 mm 1 mps 738 mmHg 93%
    02:00 +9°C° 0 mm 1 mps 738 mmHg 94%
    03:00 +7°C° 0 mm 2 mps 737 mmHg 94%
    04:00 +7°C° 0 mm 2 mps 737 mmHg 95%
    05:00 +9°C° 0 mm 2 mps 737 mmHg 90%
    06:00 +10°C° 0 mm 3 mps 737 mmHg 85%
    07:00 +12°C° 0 mm 3 mps 737 mmHg 79%
    08:00 +12°C° 0.1 mm 3 mps 737 mmHg 79%
    09:00 +12°C° 0.1 mm 4 mps 737 mmHg 79%
    10:00 +12°C° 0.1 mm 4 mps 737 mmHg 78%
    11:00 +13°C° 0.1 mm 4 mps 736 mmHg 75%
    12:00 +14°C° 0.1 mm 4 mps 736 mmHg 71%
    13:00 +15°C° 0.1 mm 4 mps 736 mmHg 67%
    14:00 +15°C° 0.2 mm 4 mps 736 mmHg 66%
    15:00 +15°C° 0.2 mm 4 mps 735 mmHg 65%
    16:00 +17°C° 0.2 mm 4 mps 735 mmHg 64%
    17:00 +16°C° 0.2 mm 3 mps 735 mmHg 70%
    18:00 +13°C° 0.2 mm 3 mps 735 mmHg 76%
    19:00 +13°C° 0.2 mm 2 mps 735 mmHg 81%
    20:00 +12°C° 0 mm 2 mps 735 mmHg 84%
    21:00 +10°C° 0 mm 2 mps 735 mmHg 86%
    22:00 +10°C° 0 mm 1 mps 735 mmHg 89%
    23:00 +10°C° 0 mm 1 mps 734 mmHg 90%

    Tomorrow, 4 June, Thursday

    Time Temperature Precipitation Wind Pressure Humidity
    00:00 +9°C° 0 mm 1 mps 734 mmHg 91%
    01:00 +9°C° 0 mm 1 mps 734 mmHg 92%
    02:00 +9°C° 0 mm 1 mps 734 mmHg 92%
    03:00 +8°C° 0 mm 1 mps 734 mmHg 93%
    04:00 +8°C° 0 mm 1 mps 733 mmHg 93%
    05:00 +10°C° 0 mm 1 mps 733 mmHg 88%
    06:00 +12°C° 0 mm 1 mps 733 mmHg 83%
    07:00 +13°C° 0 mm 1 mps 733 mmHg 78%
    08:00 +15°C° 0 mm 1 mps 733 mmHg 72%
    09:00 +15°C° 0 mm 0 mps 733 mmHg 65%
    10:00 +17°C° 0 mm 0 mps 733 mmHg 59%
    11:00 +17°C° 0 mm 0 mps 733 mmHg 56%
    12:00 +20°C° 0 mm 1 mps 732 mmHg 54%
    13:00 +21°C° 0 mm 1 mps 732 mmHg 51%
    14:00 +21°C° 0 mm 1 mps 732 mmHg 51%
    15:00 +21°C° 0 mm 1 mps 731 mmHg 50%
    16:00 +21°C° 0 mm 1 mps 731 mmHg 50%
    17:00 +20°C° 0 mm 1 mps 731 mmHg 56%
    18:00 +17°C° 0 mm 2 mps 731 mmHg 62%
    19:00 +16°C° 0 mm 2 mps 730 mmHg 68%
    20:00 +16°C° 0 mm 3 mps 730 mmHg 68%
    21:00 +14°C° 0 mm 3 mps 730 mmHg 69%
    22:00 +13°C° 0 mm 3 mps 730 mmHg 69%
    23:00 +13°C° 0 mm 4 mps 730 mmHg 72%

    Day after tomorrow, 5 June, Friday

    Time Temperature Precipitation Wind Pressure Humidity
    00:00 +13°C° 0 mm 4 mps 729 mmHg 74%
    01:00 +12°C° 0 mm 5 mps 729 mmHg 76%
    02:00 +12°C° 0 mm 5 mps 728 mmHg 80%
    03:00 +12°C° 0 mm 5 mps 728 mmHg 84%
    04:00 +12°C° 0 mm 5 mps 727 mmHg 88%
    05:00 +13°C° 0 mm 4 mps 727 mmHg 87%
    06:00 +14°C° 0 mm 4 mps 727 mmHg 85%
    07:00 +15°C° 0 mm 4 mps 727 mmHg 84%
    08:00 +17°C° 0.1 mm 5 mps 727 mmHg 81%
    09:00 +19°C° 0.1 mm 6 mps 728 mmHg 78%
    10:00 +20°C° 0.1 mm 7 mps 728 mmHg 74%
    11:00 +18°C° 0.2 mm 7 mps 728 mmHg 75%
    12:00 +18°C° 0.2 mm 8 mps 729 mmHg 76%
    13:00 +17°C° 0.2 mm 8 mps 729 mmHg 77%
    14:00 +16°C° 0 mm 7 mps 730 mmHg 78%
    15:00 +16°C° 0 mm 6 mps 730 mmHg 79%
    16:00 +15°C° 0 mm 4 mps 731 mmHg 80%
    17:00 +14°C° 0 mm 3 mps 731 mmHg 82%
    18:00 +15°C° 0 mm 2 mps 731 mmHg 84%
    19:00 +14°C° 0 mm 1 mps 732 mmHg 86%
    20:00 +14°C° 1.1 mm 1 mps 732 mmHg 89%
    21:00 +13°C° 1.1 mm 1 mps 732 mmHg 92%
    22:00 +13°C° 1.1 mm 2 mps 733 mmHg 96%
    23:00 +12°C° 0.1 mm 2 mps 733 mmHg 96%

    6 June, Saturday

    Time Temperature Precipitation Wind Pressure Humidity
    00:00 +11°C° 0.1 mm 3 mps 733 mmHg 95%
    01:00 +11°C° 0.1 mm 3 mps 733 mmHg 95%
    02:00 +11°C° 0 mm 4 mps 733 mmHg 95%
    03:00 +10°C° 0 mm 4 mps 734 mmHg 95%
    04:00 +9°C° 0 mm 5 mps 734 mmHg 95%
    05:00 +10°C° 0 mm 6 mps 734 mmHg 89%
    06:00 +13°C° 0 mm 6 mps 735 mmHg 84%
    07:00 +14°C° 0 mm 7 mps 735 mmHg 79%
    08:00 +15°C° 0 mm 7 mps 736 mmHg 73%
    09:00 +17°C° 0 mm 7 mps 736 mmHg 67%
    10:00 +18°C° 0 mm 7 mps 736 mmHg 60%
    11:00 +18°C° 0.1 mm 8 mps 736 mmHg 63%
    12:00 +18°C° 0.1 mm 8 mps 736 mmHg 66%
    13:00 +18°C° 0.1 mm 8 mps 737 mmHg 68%
    14:00 +18°C° 0 mm 8 mps 737 mmHg 66%
    15:00 +20°C° 0 mm 7 mps 737 mmHg 65%
    16:00 +20°C° 0 mm 7 mps 737 mmHg 63%
    17:00 +19°C° 0 mm 6 mps 737 mmHg 67%
    18:00 +17°C° 0 mm 5 mps 738 mmHg 72%
    19:00 +17°C° 0 mm 3 mps 738 mmHg 77%
    20:00 +16°C° 0 mm 3 mps 738 mmHg 80%
    21:00 +14°C° 0 mm 3 mps 739 mmHg 83%
    22:00 +13°C° 0 mm 3 mps 739 mmHg 85%
    23:00 +14°C° 0 mm 2 mps 739 mmHg 83%

    7 June, Sunday

    Time Temperature Precipitation Wind Pressure Humidity
    00:00 +15°C° 0 mm 2 mps 739 mmHg 80%
    01:00 +15°C° 0 mm 2 mps 739 mmHg 78%
    02:00 +15°C° 0 mm 2 mps 740 mmHg 80%
    03:00 +15°C° 0 mm 1 mps 740 mmHg 82%
    04:00 +15°C° 0 mm 1 mps 740 mmHg 84%
    05:00 +16°C° 0.1 mm 2 mps 740 mmHg 82%
    06:00 +17°C° 0.1 mm 2 mps 740 mmHg 81%
    07:00 +18°C° 0.1 mm 3 mps 740 mmHg 80%
    08:00 +20°C° 0.3 mm 3 mps 740 mmHg 75%
    09:00 +21°C° 0.3 mm 3 mps 740 mmHg 70%
    10:00 +22°C° 0.3 mm 4 mps 740 mmHg 65%
    11:00 +23°C° 0.4 mm 4 mps 740 mmHg 63%
    12:00 +25°C° 0.4 mm 4 mps 739 mmHg 61%
    13:00 +25°C° 0.4 mm 3 mps 739 mmHg 59%
    14:00 +25°C° 0.3 mm 3 mps 738 mmHg 61%
    15:00 +25°C° 0.3 mm 3 mps 738 mmHg 63%
    16:00 +25°C° 0.3 mm 3 mps 738 mmHg 64%
    17:00 +23°C° 0.3 mm 2 mps 737 mmHg 71%
    18:00 +21°C° 0.3 mm 2 mps 737 mmHg 78%
    19:00 +20°C° 0.3 mm 2 mps 737 mmHg 84%
    20:00 +19°C° 0 mm 2 mps 737 mmHg 87%
    21:00 +18°C° 0 mm 2 mps 737 mmHg 89%
    22:00 +18°C° 0 mm 1 mps 737 mmHg 92%
    23:00 +16°C° 0.1 mm 1 mps 737 mmHg 93%

    8 June, Monday

    Time Temperature Precipitation Wind Pressure Humidity
    00:00 +16°C° 0.1 mm 1 mps 737 mmHg 94%
    01:00 +16°C° 0.1 mm 2 mps 737 mmHg 95%
    02:00 +16°C° 0 mm 2 mps 737 mmHg 95%
    03:00 +15°C° 0 mm 2 mps 737 mmHg 96%
    04:00 +15°C° 0 mm 2 mps 738 mmHg 97%
    05:00 +16°C° 0 mm 3 mps 738 mmHg 94%
    06:00 +17°C° 0 mm 3 mps 738 mmHg 90%
    07:00 +18°C° 0 mm 3 mps 739 mmHg 87%
    08:00 +19°C° 0 mm 3 mps 739 mmHg 84%
    09:00 +20°C° 0 mm 3 mps 739 mmHg 80%
    10:00 +21°C° 0 mm 3 mps 739 mmHg 77%
    11:00 +21°C° 0.1 mm 4 mps 739 mmHg 77%
    12:00 +21°C° 0.1 mm 4 mps 739 mmHg 76%
    13:00 +21°C° 0.1 mm 5 mps 739 mmHg 76%
    14:00 +20°C° 0 mm 5 mps 739 mmHg 78%
    15:00 +20°C° 0 mm 5 mps 740 mmHg 79%
    16:00 +19°C° 0 mm 5 mps 740 mmHg 80%
    17:00 +17°C° 0 mm 5 mps 740 mmHg 81%
    18:00 +17°C° 0 mm 5 mps 740 mmHg 82%
    19:00 +16°C° 0 mm 5 mps 740 mmHg 84%
    20:00 +15°C° 0 mm 4 mps 741 mmHg 85%
    21:00 +14°C° 0 mm 4 mps 741 mmHg 87%
    22:00 +13°C° 0 mm 3 mps 741 mmHg 88%
    23:00 +12°C° 0 mm 3 mps 741 mmHg 89%
    Show more